Regional Weather Roundup
Issued by NWS Upton, NY

Current Version | Previous Version | Graphics & Text | Print | Product List | Glossary Off
Versions: 1 2 3 4 5 6 7 8 9 10 11 12 13 14 15 16 17 18 19 20 21 22 23 24 25 26 27 28

000
ASUS41 KOKX 191508
RWROKX

REGIONAL WEATHER ROUNDUP
NATIONAL WEATHER SERVICE NEW YORK NY
1000 AM EST THU JAN 19 2017

NOTE: "FAIR" INDICATES FEW OR NO CLOUDS BELOW 12,000 FEET WITH NO
SIGNIFICANT WEATHER AND/OR OBSTRUCTIONS TO VISIBILITY.

NYZ071-072-176-178-NJZ106-104-191600-
NEW YORK CITY METRO AREA

CITY           SKY/WX    TMP DP  RH WIND       PRES   REMARKS
Central Park   SUNNY     43  36  76 VRB5      30.08R
Wall St Helipt MOSUNNY   45  36  70 W9        30.07S
Bronx Bot Gard NOT AVBL
LaGuardia APRT MOSUNNY   45  36  70 NW10      30.06R
Kennedy INTL   MOSUNNY   47  35  63 NW15      30.07S
Breezy Point     N/A     43 N/A N/A NW9G15      N/A
Newark/Liberty MOSUNNY   46  35  65 NW12      30.06
Teterboro      SUNNY     46  36  68 NW10      30.05
$$

NYZ177-179-078>081-191600-
LONG ISLAND NEW YORK

CITY           SKY/WX    TMP DP  RH WIND       PRES   REMARKS
Jones Beach      N/A     43 N/A N/A NW7         N/A
Matinecock PT    N/A     41 N/A N/A S5          N/A
Farmingdale    SUNNY     45  37  73 NW7       30.05
MacArthur/ISP  MOSUNNY   44  37  76 NW8       30.04
Shirley        SUNNY     43  37  79 NW6       30.05
Westhampton    SUNNY     43  35  73 W6        30.06
Southampton    NOT AVBL
Bridgehampton  NOT AVBL
East Hampton   CLOUDY    41  35  80 CALM      30.03S
Montauk          N/A     40  37  89 W6        30.04R
$$

NYZ052-065-067-191600-
HUDSON VALLEY

CITY           SKY/WX    TMP DP  RH WIND       PRES   REMARKS
White Plains   MOSUNNY   43  36  76 NW10      30.03
Newburgh       MOSUNNY   36  36 100 W6        30.05S WCI  31
Montgomery     MOSUNNY   45  37  73 VRB3      30.03
Poughkeepsie   CLOUDY    38  36  92 CALM      30.05
Albany         CLOUDY    40  35  83 SW5       30.05R
$$

NJZ001-105-106-008-010-013-015-019>022-104-191600-
NEW JERSEY

CITY           SKY/WX    TMP DP  RH WIND       PRES   REMARKS
Newark/Liberty MOSUNNY   46  35  65 NW12      30.06
Teterboro      SUNNY     46  36  68 NW10      30.05
Caldwell       PTSUNNY   44  35  70 NW8       30.07
Somerville     CLOUDY    46  36  68 NW6       30.06
Linden         PTSUNNY   45  36  70 NW7       30.07R
Sussex         CLOUDY    36  36 100 CALM      30.06
Andover          N/A     40  36  86 CALM      30.06S
Trenton        CLOUDY    43  37  79 NW7       30.08
Millville      PTSUNNY   46  38  73 N9        30.08
Atlantic City  MOSUNNY   47  37  68 NW15      30.07F
Wrightstown    MOSUNNY   45  37  73 VRB7      30.05S
Toms River     SUNNY     44  38  79 NW10      30.07
Belmar         SUNNY     45  38  76 NW15      30.07
$$

PAZ047>061-062-071-191600-
EASTERN PENNSYLVANIA

CITY           SKY/WX    TMP DP  RH WIND       PRES   REMARKS
Philadelphia   PTSUNNY   47  35  63 N12       30.09S
Allentown      CLOUDY    43  34  70 NW9       30.08
Scranton       CLOUDY    37  36  96 CALM      30.06
$$

CTZ002-004>006-009-010-012-RIZ004-006-007-MAZ004-011-015-191600-
SOUTHERN NEW ENGLAND
 IN CT

CITY           SKY/WX    TMP DP  RH WIND       PRES   REMARKS
Bradley INTL   PTSUNNY   40  36  86 CALM      30.02R
Hartford       CLOUDY    41  35  79 VRB3      30.03S
Danbury        PTSUNNY   39  36  89 VRB3      30.04S
Wtrbury/Oxford PTSUNNY   39  36  87 NW6       30.03S WCI  35
Bridgeport     CLOUDY    42  36  79 SW7       30.04
Meriden        PTSUNNY   39  34  82 S3        30.03S
New Haven      MOSUNNY   39  36  89 W5        30.04
Chester        CLOUDY    41  36  81 NW6       30.02R
Groton         CLOUDY    41  35  79 W3        30.03R
Wilimantic     SUNNY     40  36  86 CALM      30.02S

 IN RI

CITY           SKY/WX    TMP DP  RH WIND       PRES   REMARKS
Providence     MOSUNNY   42  35  76 W8        30.01S
Block Island   NOT AVBL
Westerly       CLOUDY    40  34  79 SW5       30.03R
 IN MA

CITY           SKY/WX    TMP DP  RH WIND       PRES   REMARKS
Boston         PTSUNNY   38  35  89 CALM      30.01S
Worcester      SUNNY     35  31  85 W10       29.97R WCI  27
Westfield      CLOUDY    41  35  79 CALM      30.01R
Provincetown   CLOUDY    39  36  89 NW5       30.01S
Nantucket      MOSUNNY   41  39  93 N8        30.00S
$$

ANZ330-335-338-340-345-350-353-355-191600-
COASTAL MARINE OBSERVATIONS


STATION/POSITION TIME  SKY/WX   TEMP    WIND        PRES    VSBY  WAVE
                                AIR SEA DIR/SP/G                  HT/PER
                 (UTC)          (F)     (DEG/KT/KT) (MB)    (MI)  (FT/S)
NY HARB ENTRANCE 1350            43 44  300/ 10/ 12 1017.7          5/ 9
20 S FIRE ISLAND 1450            43 45  290/  8/ 10 1017.5          5/ 9
GREAT SOUTH BAY  NOT AVBL
23 SSW MONTAUK P 1350            41 48  300/  6/  8 1017.3          5/10
15 E BARNEGAT LI 1430               48                N/A           6/ 9
HUDSON CANYON    1350            46 51              1017.1          7/10
KINGS POINT      1436            41 38              1017.6
EXECUTION ROCKS  1445            55     280/  2/  6   N/A
CENTRAL LI SOUND 1353            38     290/  6/  8   N/A           0
EASTERN LI SOUND NOT AVBL
ROBBINS REEF     1436            43     300/  8/ 11 1018.3
$$


>>>>>>>>>>>>>>>>>>>>>>>>>>>> KEY <<<<<<<<<<<<<<<<<<<<<<<<<<<
>                                                          <
>     SKY/WX - Sky Condition/Present Weather               <
>     TMP    - Temperature in Fahrenheit                   <
>     DP     - Dew Point in Fahrenheit                     <
>     RH     - Relative Humidity in Percent                <
>     WIND   - Direction (from) and Speed in MPH           <
>     PRES   - Mean Sea Level Pressure (inches of Hg)      <
>     WCI    - Wind Chill Index                            <
>     VSB    - VISIBILITY IN MILES                         <
>     HX     - HEAT INDEX                                  <
>     TC     - TEMPERATURE IN CELSIUS                      <
>     VRB    - VARIABLE WIND DIRECTION                     <
>                                                          <
>>>>>>>>>>>>>>>>>>>>>>>>>>>> KEY <<<<<<<<<<<<<<<<<<<<<<<<<<<




USA.gov is the U.S. government's official web portal to all federal, state and local government web resources and services.